Hourly Data Report for September 11, 2017

All times are specified in Local Standard Time (LST). Add 1 hour to adjust for Daylight Saving Time where and when it is observed.

HALL BEACH A
NUNAVUT

68°46'33.000" N
81°14'33.000" W
9.10 m
2402354
71293
YUX

Download Data

Hourly Data (September 2017)
Hourly Data Report for September 11, 2017
Temp Definition
°C
Dew Point Temp Definition
°C
Rel Hum Definition
%
Wind Dir Definition
10's deg

Wind Spd Definition
km/h
Visibility Definition
km
Stn Press Definition
kPa
Hmdx Definition


Wind Chill Definition


Weather Definition


TIME
00:00 Legend Double Dagger -0.1 -2.0 87 25 32 16.1 100.91   -7 LegendNANA
01:00 Legend Double Dagger 0.1 -2.5 83 26 28 16.1 100.87     LegendNANA
02:00 Legend Double Dagger 0.1 -2.5 83 25 18 16.1 100.86     LegendNANA
03:00 Legend Double Dagger 0.3 -2.6 81 23 21 16.1 100.84     LegendNANA
04:00 Legend Double Dagger 0.6 -2.6 79 25 22 16.1 100.80     LegendNANA
05:00 Legend Double Dagger 0.6 -2.3 81 24 24 16.1 100.77     LegendNANA
06:00 Legend Double Dagger 0.5 -1.7 85 24 17 16.1 100.74     LegendNANA
07:00 Legend Double Dagger 1.1 -1.1 85 25 13 16.1 100.68     LegendNANA
08:00 Legend Double Dagger 1.4 -1.2 83 26 15 16.1 100.67     LegendNANA
09:00 Legend Double Dagger 2.7 -0.4 80 23 21 16.1 100.67     LegendNANA
10:00 Legend Double Dagger 2.8 -0.5 79 25 17 16.1 100.69     LegendNANA
11:00 Legend Double Dagger 3.3 -0.1 78 28 21 16.1 100.68     LegendNANA
12:00 Legend Double Dagger 3.6 0.2 78 31 17 16.1 100.66     LegendNANA
13:00 Legend Double Dagger 4.0 0.4 77 32 21 16.1 100.62     LegendNANA
14:00 Legend Double Dagger 4.1 0.5 78 30 18 16.1 100.62     LegendNANA
15:00 Legend Double Dagger 4.5 0.3 74 29 15 16.1 100.64     LegendNANA
16:00 Legend Double Dagger 2.0 0.4 89 7 17 16.1 100.64     LegendNANA
17:00 Legend Double Dagger 1.6 0.4 92 6 11 16.1 100.67     LegendNANA
18:00 Legend Double Dagger 1.2 -0.9 86 4 15 16.1 100.70     LegendNANA
19:00 Legend Double Dagger 0.6 -1.6 85 5 8 16.1 100.71     LegendNANA
20:00 Legend Double Dagger -0.2 -2.0 88 35 5 16.1 100.69   -2 LegendNANA
21:00 Legend Double Dagger 0.4 -1.5 87 36 13 16.1 100.67     Rain
22:00 Legend Double Dagger 0.7 -0.6 91 36 22 16.1 100.65     LegendNANA
23:00 Legend Double Dagger 0.5 -0.5 93 36 24 6.4 100.63     Rain,Fog

Notes on Data Quality.

Legend

  • E = Estimated
  • M = Missing
  • NA = Not Available
  • ‡ = Partner data that is not subject to review by the National Climate Archives
Date modified: